This demonstration page uses our WeatherBlox Daily Observations layout. Learn more.

Left ArrowRight Arrow

39.12711, -84.51439

Hourly Observations for June 11, 2018

Temp ( °F °C ) Dew Point ( °F °C ) Humidity (%) Winds ( mph kmh ) Pressure ( in mb ) Visibility ( mi km ) Precip ( " mm )
12:17 am 00:17 Partly Cloudy 71 21.7 68 20 90 90 WNW 5 7 29.88 1012 10 16 N/A
12:53 am 00:53 Partly Cloudy 70 21.1 68 20 93 93 SE 3 6 29.84 1011 10 16 N/A
1:53 am 01:53 Mostly Clear 68 20 68 20 100 100 SSW 3 6 29.86 1011 9 14 N/A
2:53 am 02:53 Mostly Cloudy 68 20 68 20 100 100 S 7 11 29.86 1011 8 13 N/A
3:53 am 03:53 Mostly Cloudy 68 20 68 20 100 100 SSW 5 7 29.84 1011 9 14 N/A
4:53 am 04:53 Clear 68 20 67 19.4 96 96 SSW 3 6 29.86 1011 10 16 N/A
5:53 am 05:53 Mostly Cloudy 68 20 67 19.4 96 96 SSE 3 6 29.86 1011 10 16 N/A
6:53 am 06:53 Partly Cloudy 67 19.4 67 19.4 100 100 SSW 7 11 29.89 1012 10 16 N/A
7:53 am 07:53 Mostly Cloudy 70 21.1 68 20 93 93 SW 7 11 29.93 1013 10 16 N/A
8:53 am 08:53 Partly Cloudy 71 21.7 68 20 90 90 WSW 5 7 29.93 1014 10 16 N/A
9:53 am 09:53 Cloudy with Rain 70 21.1 68 20 93 93 WSW 7 11 29.95 1014 5 8 0.05 1.27
10:53 am 10:53 Cloudy with Light Rain 69 20.6 68 20 96 96 N N/A 29.95 1014 6 10 0.06 1.52
11:49 am 11:49 Mostly Cloudy 72 22 70 21 94 94 SSW 3 6 29.94 1014 10 16 N/A
11:53 am 11:53 Mostly Cloudy 72 22.2 69 20.6 91 91 N N/A 29.95 1014 10 16 N/A
12:04 pm 12:04 Cloudy with Light Rain 72 22.2 69 20.6 91 91 SSW 3 6 29.94 1014 10 16 N/A
12:53 pm 12:53 Cloudy 73 22.8 69 20.6 87 87 SSE 6 9 29.96 1014 10 16 N/A
1:53 pm 13:53 Mostly Cloudy 73 22.8 68 20 84 84 S 7 11 29.95 1014 10 16 N/A
2:53 pm 14:53 Cloudy with Light Rain 74 23.3 67 19.4 79 79 N N/A 29.93 1014 10 16 N/A
3:53 pm 15:53 Cloudy 77 25 68 20 74 74 ESE 3 6 29.91 1013 10 16 N/A
4:00 pm 16:00 Mostly Cloudy 76 24.4 69 20.6 79 79 SE 6 9 29.91 1013 10 16 N/A
4:53 pm 16:53 Mostly Cloudy 77 25 69 20.6 77 77 SSE 6 9 29.91 1013 10 16 N/A
5:53 pm 17:53 Mostly Cloudy 76 24.4 69 20.6 79 79 N N/A 29.90 1013 10 16 N/A
6:53 pm 18:53 Cloudy 76 24.4 70 21.1 82 82 NE 3 6 29.89 1012 10 16 N/A
7:53 pm 19:53 Mostly Cloudy 75 23.9 70 21.1 84 84 NE 3 6 29.91 1013 10 16 N/A
8:53 pm 20:53 Mostly Cloudy 73 22.8 70 21.1 90 90 E 3 6 29.92 1013 10 16 N/A
9:53 pm 21:53 Cloudy 72 22.2 70 21.1 94 94 NNE 3 6 29.93 1014 10 16 N/A
10:05 pm 22:05 Cloudy 71 21.7 71 21.7 100 100 N N/A 29.91 1013 10 16 N/A
10:18 pm 22:18 Cloudy 71 21.7 70 21.1 96 96 N N/A 29.91 1013 10 16 N/A
10:53 pm 22:53 Cloudy 72 22.2 70 21.1 94 94 NE 3 6 29.95 1014 10 16 N/A
11:53 pm 23:53 Mostly Cloudy 68 20 68 20 100 100 N N/A 29.95 1014 9 14 N/A

Powered by AerisWeather